• In Portugal
  • List of Countries
  • For 7 days
  • Water Temperature
  • Satellite Maps
  • Weather Map
  • Weather Widgets
  • user-avatar
    Login

    Hourly Weather Konstantyna

    Today, 17 December, Sunday

    Time Temperature Precipitation Wind Pressure Humidity
    00:00 +5°C° 0 mm 2 mps 711 mmHg 92%
    01:00 +5°C° 0.1 mm 2 mps 711 mmHg 92%
    02:00 +4°C° 0.1 mm 2 mps 711 mmHg 92%
    03:00 +4°C° 0.1 mm 2 mps 711 mmHg 92%
    04:00 +4°C° 0.1 mm 2 mps 712 mmHg 92%
    05:00 +5°C° 0.1 mm 1 mps 712 mmHg 91%
    06:00 +5°C° 0.1 mm 1 mps 712 mmHg 91%
    07:00 +5°C° 0.2 mm 2 mps 713 mmHg 87%
    08:00 +5°C° 0.2 mm 2 mps 713 mmHg 84%
    09:00 +6°C° 0.2 mm 2 mps 714 mmHg 80%
    10:00 +7°C° 0.3 mm 2 mps 714 mmHg 79%
    11:00 +7°C° 0.3 mm 3 mps 714 mmHg 77%
    12:00 +6°C° 0.3 mm 4 mps 714 mmHg 76%
    13:00 +6°C° 0.2 mm 4 mps 714 mmHg 75%
    14:00 +6°C° 0.2 mm 5 mps 714 mmHg 75%
    15:00 +6°C° 0.2 mm 5 mps 714 mmHg 74%
    16:00 +5°C° 0.1 mm 5 mps 714 mmHg 78%
    17:00 +4°C° 0.1 mm 4 mps 715 mmHg 81%
    18:00 +4°C° 0.1 mm 4 mps 715 mmHg 84%
    19:00 +3°C° 0.1 mm 3 mps 715 mmHg 85%
    20:00 +3°C° 0.1 mm 3 mps 716 mmHg 86%
    21:00 +3°C° 0.1 mm 3 mps 716 mmHg 87%
    22:00 +3°C° 0.2 mm 3 mps 716 mmHg 87%
    23:00 +4°C° 0.2 mm 3 mps 716 mmHg 87%

    Tomorrow, 18 December, Monday

    Time Temperature Precipitation Wind Pressure Humidity
    00:00 +4°C° 0.2 mm 4 mps 717 mmHg 87%
    01:00 +4°C° 0.3 mm 4 mps 717 mmHg 88%
    02:00 +4°C° 0.3 mm 4 mps 717 mmHg 88%
    03:00 +4°C° 0.3 mm 4 mps 716 mmHg 89%
    04:00 +4°C° 0.3 mm 4 mps 717 mmHg 89%
    05:00 +4°C° 0.3 mm 4 mps 717 mmHg 89%
    06:00 +4°C° 0.3 mm 4 mps 717 mmHg 89%
    07:00 +5°C° 0.2 mm 4 mps 717 mmHg 87%
    08:00 +5°C° 0.2 mm 4 mps 717 mmHg 85%
    09:00 +5°C° 0.2 mm 4 mps 717 mmHg 83%
    10:00 +6°C° 0.2 mm 4 mps 717 mmHg 83%
    11:00 +6°C° 0.2 mm 4 mps 717 mmHg 83%
    12:00 +7°C° 0.2 mm 3 mps 717 mmHg 83%
    13:00 +7°C° 0.2 mm 3 mps 716 mmHg 81%
    14:00 +7°C° 0.2 mm 3 mps 716 mmHg 80%
    15:00 +6°C° 0.2 mm 4 mps 716 mmHg 78%
    16:00 +7°C° 0 mm 3 mps 715 mmHg 80%
    17:00 +5°C° 0 mm 3 mps 715 mmHg 82%
    18:00 +5°C° 0 mm 3 mps 715 mmHg 84%
    19:00 +4°C° 0 mm 3 mps 715 mmHg 84%
    20:00 +4°C° 0 mm 3 mps 715 mmHg 85%
    21:00 +4°C° 0 mm 3 mps 715 mmHg 85%
    22:00 +3°C° 0.1 mm 3 mps 714 mmHg 85%
    23:00 +3°C° 0.1 mm 3 mps 714 mmHg 84%

    Day after tomorrow, 19 December, Tuesday

    Time Temperature Precipitation Wind Pressure Humidity
    00:00 +3°C° 0.1 mm 3 mps 714 mmHg 84%
    01:00 +3°C° 0.3 mm 3 mps 713 mmHg 84%
    02:00 +3°C° 0.3 mm 3 mps 713 mmHg 83%
    03:00 +3°C° 0.3 mm 3 mps 713 mmHg 82%
    04:00 +3°C° 0.4 mm 3 mps 713 mmHg 82%
    05:00 +3°C° 0.4 mm 3 mps 713 mmHg 81%
    06:00 +4°C° 0.4 mm 3 mps 712 mmHg 80%
    07:00 +4°C° 0.5 mm 3 mps 713 mmHg 78%
    08:00 +5°C° 0.5 mm 3 mps 713 mmHg 77%
    09:00 +5°C° 0.5 mm 3 mps 713 mmHg 75%
    10:00 +6°C° 0.1 mm 4 mps 713 mmHg 70%
    11:00 +7°C° 0.1 mm 4 mps 713 mmHg 66%
    12:00 +8°C° 0.1 mm 5 mps 712 mmHg 61%
    13:00 +8°C° 0.1 mm 5 mps 712 mmHg 63%
    14:00 +8°C° 0.1 mm 4 mps 712 mmHg 65%
    15:00 +8°C° 0.1 mm 4 mps 712 mmHg 66%
    16:00 +7°C° 0.2 mm 4 mps 712 mmHg 71%
    17:00 +8°C° 0.2 mm 3 mps 712 mmHg 76%
    18:00 +7°C° 0.2 mm 2 mps 712 mmHg 81%
    19:00 +7°C° 0.2 mm 3 mps 713 mmHg 84%
    20:00 +5°C° 0.2 mm 3 mps 713 mmHg 87%
    21:00 +5°C° 0.2 mm 3 mps 713 mmHg 90%
    22:00 +5°C° 0.3 mm 3 mps 714 mmHg 90%
    23:00 +5°C° 0.3 mm 3 mps 714 mmHg 91%

    20 December, Wednesday

    Time Temperature Precipitation Wind Pressure Humidity
    00:00 +5°C° 0.3 mm 3 mps 714 mmHg 92%
    01:00 +5°C° 0.4 mm 3 mps 714 mmHg 93%
    02:00 +5°C° 0.4 mm 3 mps 714 mmHg 93%
    03:00 +5°C° 0.4 mm 4 mps 714 mmHg 94%
    04:00 +5°C° 0.3 mm 3 mps 715 mmHg 94%
    05:00 +5°C° 0.3 mm 3 mps 715 mmHg 94%
    06:00 +5°C° 0.3 mm 3 mps 715 mmHg 94%
    07:00 +5°C° 0.1 mm 3 mps 716 mmHg 89%
    08:00 +7°C° 0.1 mm 3 mps 716 mmHg 85%
    09:00 +7°C° 0.1 mm 3 mps 716 mmHg 80%
    10:00 +8°C° 0.1 mm 3 mps 716 mmHg 77%
    11:00 +7°C° 0.1 mm 4 mps 716 mmHg 73%
    12:00 +8°C° 0.1 mm 4 mps 716 mmHg 70%
    13:00 +7°C° 0 mm 4 mps 716 mmHg 69%
    14:00 +7°C° 0 mm 4 mps 716 mmHg 69%
    15:00 +8°C° 0 mm 3 mps 716 mmHg 68%
    16:00 +7°C° 0.1 mm 3 mps 716 mmHg 73%
    17:00 +7°C° 0.1 mm 2 mps 716 mmHg 78%
    18:00 +7°C° 0.1 mm 1 mps 717 mmHg 83%
    19:00 +7°C° 0.1 mm 1 mps 717 mmHg 84%
    20:00 +7°C° 0.1 mm 1 mps 717 mmHg 86%
    21:00 +7°C° 0.1 mm 1 mps 718 mmHg 87%
    22:00 +7°C° 0.1 mm 1 mps 718 mmHg 87%
    23:00 +7°C° 0.1 mm 1 mps 717 mmHg 88%

    21 December, Thursday

    Time Temperature Precipitation Wind Pressure Humidity
    00:00 +7°C° 0.1 mm 1 mps 717 mmHg 89%
    01:00 +7°C° 0.3 mm 1 mps 717 mmHg 89%
    02:00 +7°C° 0.3 mm 1 mps 717 mmHg 90%
    03:00 +7°C° 0.3 mm 1 mps 717 mmHg 91%
    04:00 +7°C° 0.3 mm 1 mps 717 mmHg 91%
    05:00 +7°C° 0.3 mm 1 mps 718 mmHg 92%
    06:00 +7°C° 0.3 mm 1 mps 718 mmHg 93%
    07:00 +6°C° 0.2 mm 2 mps 718 mmHg 88%
    08:00 +7°C° 0.2 mm 2 mps 719 mmHg 83%
    09:00 +7°C° 0.2 mm 3 mps 720 mmHg 78%
    10:00 +8°C° 0.1 mm 3 mps 720 mmHg 75%
    11:00 +7°C° 0.1 mm 4 mps 720 mmHg 71%
    12:00 +7°C° 0.1 mm 4 mps 720 mmHg 68%
    13:00 +7°C° 0.1 mm 4 mps 720 mmHg 69%
    14:00 +7°C° 0.1 mm 4 mps 720 mmHg 70%
    15:00 +7°C° 0.1 mm 4 mps 720 mmHg 71%
    16:00 +7°C° 0 mm 3 mps 720 mmHg 76%
    17:00 +6°C° 0 mm 2 mps 720 mmHg 82%
    18:00 +5°C° 0 mm 2 mps 721 mmHg 87%
    19:00 +6°C° 0 mm 1 mps 721 mmHg 88%
    20:00 +6°C° 0 mm 1 mps 721 mmHg 89%
    21:00 +5°C° 0 mm 1 mps 721 mmHg 90%
    22:00 +5°C° 0 mm 1 mps 721 mmHg 91%
    23:00 +5°C° 0 mm 1 mps 721 mmHg 91%

    22 December, Friday

    Time Temperature Precipitation Wind Pressure Humidity
    00:00 +5°C° 0 mm 1 mps 721 mmHg 91%
    01:00 +4°C° 0 mm 1 mps 720 mmHg 92%
    02:00 +4°C° 0 mm 1 mps 720 mmHg 92%
    03:00 +4°C° 0 mm 1 mps 720 mmHg 92%
    04:00 +4°C° 0 mm 1 mps 720 mmHg 92%
    05:00 +3°C° 0 mm 1 mps 720 mmHg 92%
    06:00 +3°C° 0 mm 1 mps 720 mmHg 92%
    07:00 +4°C° 0 mm 1 mps 720 mmHg 87%
    08:00 +6°C° 0 mm 1 mps 720 mmHg 82%
    09:00 +7°C° 0 mm 1 mps 720 mmHg 76%
    10:00 +7°C° 0 mm 2 mps 720 mmHg 72%
    11:00 +8°C° 0 mm 2 mps 719 mmHg 68%
    12:00 +9°C° 0 mm 2 mps 719 mmHg 64%
    13:00 +9°C° 0 mm 3 mps 719 mmHg 65%
    14:00 +9°C° 0 mm 3 mps 718 mmHg 67%
    15:00 +9°C° 0 mm 3 mps 718 mmHg 68%
    16:00 +8°C° 0 mm 3 mps 718 mmHg 74%
    17:00 +7°C° 0 mm 2 mps 718 mmHg 80%
    18:00 +6°C° 0 mm 2 mps 718 mmHg 87%
    19:00 +6°C° 0 mm 2 mps 718 mmHg 88%
    20:00 +5°C° 0 mm 2 mps 718 mmHg 89%
    21:00 +5°C° 0 mm 2 mps 718 mmHg 90%
    22:00 +6°C° 0.2 mm 2 mps 717 mmHg 89%
    23:00 +6°C° 0.2 mm 2 mps 717 mmHg 89%
    Show more

    XHprof extension not loaded